Year,Month,Day,Hour,Minute,Value (Times are PST for temperature in C)
2015,02,17,06,10,0.70
2015,02,17,06,11,0.70
2015,02,17,06,12,0.70
2015,02,17,06,13,0.70
2015,02,17,06,14,0.70
2015,02,17,06,15,0.60
2015,02,17,06,16,0.60
2015,02,17,06,17,0.60
2015,02,17,06,18,0.60
2015,02,17,06,19,0.60
2015,02,17,06,20,0.50
2015,02,17,06,21,0.50
2015,02,17,06,22,0.50
2015,02,17,06,23,0.50
2015,02,17,06,24,0.40
2015,02,17,06,25,0.40
2015,02,17,06,26,0.40
2015,02,17,06,27,0.40
2015,02,17,06,28,0.40
2015,02,17,06,29,0.40
2015,02,17,06,30,0.40
2015,02,17,06,31,0.50
2015,02,17,06,32,0.60
2015,02,17,06,33,0.60
2015,02,17,06,34,0.70
2015,02,17,06,35,0.80
2015,02,17,06,36,0.80
2015,02,17,06,37,0.80
2015,02,17,06,38,0.80
2015,02,17,06,39,0.80
2015,02,17,06,40,0.80
2015,02,17,06,41,0.80
2015,02,17,06,42,0.80
2015,02,17,06,43,0.80
2015,02,17,06,44,0.80
2015,02,17,06,45,0.80
2015,02,17,06,46,0.70
2015,02,17,06,47,0.70
2015,02,17,06,48,0.70
2015,02,17,06,49,0.70
2015,02,17,06,50,0.70
2015,02,17,06,51,0.60
2015,02,17,06,52,0.60
2015,02,17,06,53,0.60
2015,02,17,06,54,0.60
2015,02,17,06,55,0.60
2015,02,17,06,56,0.60
2015,02,17,06,57,0.60
2015,02,17,06,58,0.60
2015,02,17,06,59,0.60
2015,02,17,07,00,0.60
2015,02,17,07,01,0.60
2015,02,17,07,02,0.60
2015,02,17,07,03,0.60
2015,02,17,07,04,0.60
2015,02,17,07,05,0.60
2015,02,17,07,06,0.60
2015,02,17,07,07,0.60
2015,02,17,07,08,0.60
2015,02,17,07,09,0.60
2015,02,17,07,10,0.60
2015,02,17,07,11,0.60
2015,02,17,07,12,0.50
2015,02,17,07,13,0.50
2015,02,17,07,14,0.50
2015,02,17,07,15,0.50
2015,02,17,07,16,0.50
2015,02,17,07,17,0.50
2015,02,17,07,18,0.50
2015,02,17,07,19,0.50
2015,02,17,07,20,0.50
2015,02,17,07,21,0.50
2015,02,17,07,22,0.40
2015,02,17,07,23,0.40
2015,02,17,07,24,0.40
2015,02,17,07,25,0.40
2015,02,17,07,26,0.40
2015,02,17,07,27,0.40
2015,02,17,07,28,0.40
2015,02,17,07,29,0.30
2015,02,17,07,30,0.30
2015,02,17,07,31,0.30
2015,02,17,07,32,0.30
2015,02,17,07,33,0.30
2015,02,17,07,34,0.30
2015,02,17,07,35,0.30
2015,02,17,07,36,0.30
2015,02,17,07,37,0.30
2015,02,17,07,38,0.30
2015,02,17,07,39,0.30
2015,02,17,07,40,0.30
2015,02,17,07,41,0.30
2015,02,17,07,42,0.30
2015,02,17,07,43,0.30
2015,02,17,07,44,0.30
2015,02,17,07,45,0.40
2015,02,17,07,46,0.50
2015,02,17,07,47,0.50
2015,02,17,07,48,0.60
2015,02,17,07,49,0.70
2015,02,17,07,50,0.70
2015,02,17,07,51,0.70
2015,02,17,07,52,0.70
2015,02,17,07,53,0.80
2015,02,17,07,54,0.80
2015,02,17,07,55,0.80
2015,02,17,07,56,0.90
2015,02,17,07,57,0.90
2015,02,17,07,58,0.90
2015,02,17,07,59,1.00
2015,02,17,08,00,1.00
2015,02,17,08,01,1.10
2015,02,17,08,02,1.10
2015,02,17,08,03,1.10
2015,02,17,08,04,1.20
2015,02,17,08,05,1.20
2015,02,17,08,06,1.20
2015,02,17,08,07,1.20
2015,02,17,08,08,1.20
2015,02,17,08,09,1.20
2015,02,17,08,10,1.30
2015,02,17,08,11,1.30
2015,02,17,08,12,1.30
2015,02,17,08,13,1.30
2015,02,17,08,14,1.30
2015,02,17,08,15,1.40
2015,02,17,08,16,1.40
2015,02,17,08,17,1.40
2015,02,17,08,18,1.40
2015,02,17,08,19,1.40
2015,02,17,08,20,1.50
2015,02,17,08,21,1.50
2015,02,17,08,22,1.50
2015,02,17,08,23,1.50
2015,02,17,08,24,1.60
2015,02,17,08,25,1.60
2015,02,17,08,26,1.60
2015,02,17,08,27,1.70
2015,02,17,08,28,1.70
2015,02,17,08,29,1.80
2015,02,17,08,30,1.80
2015,02,17,08,31,1.80
2015,02,17,08,32,1.80
2015,02,17,08,33,1.80
2015,02,17,08,34,1.90
2015,02,17,08,35,2.00
2015,02,17,08,36,2.00
2015,02,17,08,37,2.10
2015,02,17,08,38,2.10
2015,02,17,08,39,2.20
2015,02,17,08,40,2.20
2015,02,17,08,41,2.20
2015,02,17,08,42,2.20
2015,02,17,08,43,2.20
2015,02,17,08,44,2.20
2015,02,17,08,45,2.20
2015,02,17,08,46,2.20
2015,02,17,08,47,2.20
2015,02,17,08,48,2.20
2015,02,17,08,49,2.20
2015,02,17,08,50,2.20
2015,02,17,08,51,2.20
